Location: Haulchin
(50.3172°N, 3.4360°E)
Time: 06:12:44
(UTC+00:00)

Cosmos 2333 Rocket - Pass Details

Date: 12 August 2024
Orbit: 839 x 863 km, 70.8° (Epoch: 16 September)

Event Time Altitude Azimuth Distance (km) Brightness Sun altitude
Exits shadow 23:03:15 22° 97° (E) 1,796 3.7 -24.2°
Drops below altitude 10° 23:07:14 10° 53° (NE) 2,509 4.9 -24.4°
Sets 23:10:12 0° 39° (NE) 3,453 5.9 -24.5°
